TimeCST,TemperatureF,Dew PointF,Humidity,Sea Level PressureIn,VisibilityMPH,Wind Direction,Wind SpeedMPH,Gust SpeedMPH,PrecipitationIn,Events,Conditions,WindDirDegrees,DateUTC
12:07 AM,28.4,21.2,74,30.17,10.0,NW,8.1,-,0.00,Snow,Light Snow,320,2013-03-03 06:07:00
12:56 AM,28.0,21.0,75,30.21,10.0,NNW,10.4,-,0.00,Snow,Light Snow,330,2013-03-03 06:56:00
1:36 AM,26.6,19.4,74,30.17,10.0,NNW,8.1,-,0.00,Snow,Light Snow,330,2013-03-03 07:36:00
1:56 AM,27.1,20.1,75,30.20,10.0,NNW,6.9,-,0.00,Snow,Light Snow,340,2013-03-03 07:56:00
2:56 AM,27.1,20.1,75,30.19,10.0,North,8.1,-,0.00,,Overcast,350,2013-03-03 08:56:00
3:56 AM,26.1,21.0,81,30.18,10.0,North,6.9,-,0.00,Snow,Light Snow,350,2013-03-03 09:56:00
4:27 AM,26.6,19.4,74,30.16,10.0,NNW,8.1,-,0.00,,Mostly Cloudy,340,2013-03-03 10:27:00
4:56 AM,26.1,20.1,78,30.19,10.0,NNW,10.4,-,0.00,,Overcast,330,2013-03-03 10:56:00
5:56 AM,26.1,19.0,75,30.20,10.0,NNW,6.9,-,N/A,,Mostly Cloudy,330,2013-03-03 11:56:00
6:56 AM,24.1,18.1,78,30.20,10.0,NNW,5.8,-,N/A,,Clear,340,2013-03-03 12:56:00
7:56 AM,28.0,17.1,63,30.23,10.0,North,11.5,-,N/A,,Clear,350,2013-03-03 13:56:00
8:56 AM,30.0,15.1,54,30.23,10.0,NNW,11.5,-,N/A,,Clear,340,2013-03-03 14:56:00
9:56 AM,32.9,15.1,48,30.23,10.0,NNW,9.2,-,N/A,,Clear,330,2013-03-03 15:56:00
10:56 AM,34.9,14.0,42,30.22,10.0,Variable,4.6,-,N/A,,Clear,0,2013-03-03 16:56:00
11:56 AM,37.9,14.0,38,30.20,10.0,NW,9.2,17.3,N/A,,Clear,310,2013-03-03 17:56:00
12:56 PM,39.9,13.1,33,30.18,10.0,Variable,4.6,-,N/A,,Clear,0,2013-03-03 18:56:00
1:56 PM,41.9,12.0,30,30.16,10.0,NNW,10.4,17.3,N/A,,Clear,330,2013-03-03 19:56:00
2:56 PM,43.9,11.1,26,30.15,10.0,North,10.4,-,N/A,,Clear,360,2013-03-03 20:56:00
3:56 PM,43.9,12.0,27,30.15,10.0,NW,9.2,-,N/A,,Clear,320,2013-03-03 21:56:00
4:56 PM,43.0,11.1,27,30.14,10.0,NW,3.5,-,N/A,,Clear,320,2013-03-03 22:56:00
5:56 PM,38.8,14.0,36,30.14,10.0,Calm,Calm,-,N/A,,Clear,0,2013-03-03 23:56:00
6:56 PM,32.9,19.0,57,30.16,10.0,Calm,Calm,-,N/A,,Clear,0,2013-03-04 00:56:00
7:56 PM,30.0,20.1,67,30.16,10.0,Calm,Calm,-,N/A,,Clear,0,2013-03-04 01:56:00
8:56 PM,29.1,21.0,72,30.16,10.0,SSW,4.6,-,N/A,,Clear,210,2013-03-04 02:56:00
9:56 PM,28.0,21.0,75,30.15,10.0,South,4.6,-,N/A,,Clear,190,2013-03-04 03:56:00
10:56 PM,27.1,21.0,78,30.15,10.0,Calm,Calm,-,N/A,,Partly Cloudy,0,2013-03-04 04:56:00
11:56 PM,27.1,23.0,84,30.16,10.0,NE,3.5,-,N/A,,Mostly Cloudy,50,2013-03-04 05:56:00